When you browse on this site, cookies collect data to enhance your experience and personalize the content and advertising you see.
Visit our Privacy Policy to learn more. By continuing to use the site, you agree to this use of cookies and data.
  • En España
  • Lista de países
  • Para 7 días
  • Temperatura del agua
  • Mapa Satelital
  • El tiempo en el mapa
  • Informadores
  • user-avatar
    Iniciar sesión

    Tiempo cada hora Novi Sad

    Hoy, 19 Diciembre, Miércoles

    Tiempo Temperatura Precipitaciones Viento Presión Humedad
    00:00 -4°C° 0 mm 1 mps 759 mmHg 90%
    01:00 -3°C° 0 mm 1 mps 759 mmHg 89%
    02:00 -4°C° 0 mm 1 mps 758 mmHg 89%
    03:00 -4°C° 0 mm 1 mps 758 mmHg 89%
    04:00 -4°C° 0 mm 1 mps 758 mmHg 89%
    05:00 -6°C° 0 mm 1 mps 758 mmHg 89%
    06:00 -6°C° 0 mm 1 mps 758 mmHg 89%
    07:00 -7°C° 0 mm 1 mps 758 mmHg 89%
    08:00 -6°C° 0 mm 1 mps 758 mmHg 89%
    09:00 -4°C° 0 mm 1 mps 758 mmHg 89%
    10:00 -3°C° 0 mm 1 mps 758 mmHg 89%
    11:00 -2°C° 0 mm 1 mps 757 mmHg 89%
    12:00 -3°C° 0 mm 2 mps 757 mmHg 89%
    13:00 -2°C° 0 mm 2 mps 757 mmHg 89%
    14:00 -3°C° 0 mm 2 mps 756 mmHg 91%
    15:00 -4°C° 0 mm 2 mps 756 mmHg 92%
    16:00 -5°C° 0 mm 2 mps 756 mmHg 94%
    17:00 -6°C° 0 mm 2 mps 756 mmHg 94%
    18:00 -6°C° 0 mm 2 mps 756 mmHg 94%
    19:00 -7°C° 0 mm 2 mps 755 mmHg 94%
    20:00 -7°C° 0 mm 2 mps 755 mmHg 94%
    21:00 -7°C° 0 mm 2 mps 755 mmHg 94%
    22:00 -7°C° 0 mm 2 mps 755 mmHg 93%
    23:00 -7°C° 0 mm 2 mps 755 mmHg 93%

    Mañana, 20 Diciembre, Jueves

    Tiempo Temperatura Precipitaciones Viento Presión Humedad
    00:00 -7°C° 0 mm 2 mps 754 mmHg 92%
    01:00 -7°C° 0 mm 2 mps 754 mmHg 91%
    02:00 -7°C° 0 mm 2 mps 754 mmHg 91%
    03:00 -6°C° 0 mm 2 mps 754 mmHg 90%
    04:00 -4°C° 0 mm 1 mps 754 mmHg 90%
    05:00 -4°C° 0 mm 1 mps 754 mmHg 89%
    06:00 -6°C° 0 mm 1 mps 754 mmHg 89%
    07:00 -6°C° 0 mm 1 mps 754 mmHg 88%
    08:00 -3°C° 0 mm 1 mps 754 mmHg 87%
    09:00 -2°C° 0 mm 1 mps 754 mmHg 86%
    10:00 -1°C° 0 mm 1 mps 755 mmHg 85%
    11:00 0°C° 0 mm 1 mps 755 mmHg 86%
    12:00 0°C° 0 mm 1 mps 754 mmHg 87%
    13:00 +1°C° 0 mm 1 mps 754 mmHg 88%
    14:00 +1°C° 0 mm 1 mps 754 mmHg 87%
    15:00 0°C° 0 mm 1 mps 754 mmHg 86%
    16:00 0°C° 0 mm 1 mps 754 mmHg 85%
    17:00 0°C° 0 mm 1 mps 755 mmHg 84%
    18:00 0°C° 0 mm 1 mps 755 mmHg 83%
    19:00 -2°C° 0 mm 2 mps 755 mmHg 82%
    20:00 -2°C° 0.1 mm 2 mps 755 mmHg 82%
    21:00 0°C° 0.1 mm 1 mps 755 mmHg 82%
    22:00 0°C° 0.1 mm 1 mps 755 mmHg 82%
    23:00 0°C° 0 mm 1 mps 755 mmHg 83%

    Pasado mañana, 21 Diciembre, Viernes

    Tiempo Temperatura Precipitaciones Viento Presión Humedad
    00:00 0°C° 0 mm 1 mps 756 mmHg 85%
    01:00 0°C° 0 mm 1 mps 756 mmHg 86%
    02:00 0°C° 0 mm 1 mps 756 mmHg 86%
    03:00 0°C° 0 mm 1 mps 755 mmHg 87%
    04:00 0°C° 0 mm 1 mps 755 mmHg 88%
    05:00 0°C° 0 mm 1 mps 756 mmHg 88%
    06:00 0°C° 0 mm 1 mps 756 mmHg 88%
    07:00 -2°C° 0 mm 0 mps 756 mmHg 88%
    08:00 0°C° 0 mm 1 mps 756 mmHg 91%
    09:00 +1°C° 0 mm 1 mps 756 mmHg 93%
    10:00 +2°C° 0 mm 1 mps 756 mmHg 96%
    11:00 +2°C° 0 mm 1 mps 755 mmHg 97%
    12:00 +3°C° 0 mm 1 mps 754 mmHg 98%
    13:00 +3°C° 0 mm 1 mps 754 mmHg 99%
    14:00 +2°C° 0 mm 2 mps 754 mmHg 96%
    15:00 +2°C° 0 mm 2 mps 753 mmHg 94%
    16:00 +1°C° 0 mm 2 mps 753 mmHg 91%
    17:00 +2°C° 0 mm 2 mps 753 mmHg 90%
    18:00 +2°C° 0 mm 2 mps 753 mmHg 89%
    19:00 +1°C° 0 mm 3 mps 753 mmHg 88%
    20:00 +1°C° 0 mm 3 mps 753 mmHg 88%
    21:00 +1°C° 0 mm 3 mps 753 mmHg 87%
    22:00 +1°C° 0 mm 3 mps 752 mmHg 87%
    23:00 +1°C° 0 mm 3 mps 752 mmHg 86%

    22 Diciembre, Sábado

    Tiempo Temperatura Precipitaciones Viento Presión Humedad
    00:00 +1°C° 0 mm 3 mps 752 mmHg 86%
    01:00 +1°C° 0 mm 3 mps 752 mmHg 86%
    02:00 +1°C° 0 mm 3 mps 752 mmHg 85%
    03:00 +1°C° 0 mm 3 mps 751 mmHg 85%
    04:00 +1°C° 0 mm 3 mps 751 mmHg 85%
    05:00 +2°C° 0.2 mm 2 mps 751 mmHg 86%
    06:00 +2°C° 0.2 mm 2 mps 752 mmHg 88%
    07:00 +3°C° 0.2 mm 2 mps 752 mmHg 89%
    08:00 +3°C° 0 mm 2 mps 752 mmHg 91%
    09:00 +2°C° 0 mm 3 mps 751 mmHg 93%
    10:00 +3°C° 0 mm 3 mps 751 mmHg 95%
    11:00 +3°C° 0 mm 3 mps 751 mmHg 95%
    12:00 +4°C° 0 mm 3 mps 750 mmHg 94%
    13:00 +6°C° 0 mm 2 mps 750 mmHg 94%
    14:00 +6°C° 0 mm 2 mps 750 mmHg 93%
    15:00 +5°C° 0 mm 2 mps 750 mmHg 91%
    16:00 +5°C° 0 mm 2 mps 751 mmHg 89%
    17:00 +5°C° 0 mm 2 mps 751 mmHg 89%
    18:00 +5°C° 0 mm 2 mps 751 mmHg 90%
    19:00 +4°C° 0 mm 2 mps 752 mmHg 90%
    20:00 +4°C° 0 mm 2 mps 752 mmHg 89%
    21:00 +4°C° 0 mm 2 mps 752 mmHg 89%
    22:00 +4°C° 0 mm 2 mps 753 mmHg 88%
    23:00 +4°C° 0 mm 2 mps 753 mmHg 88%

    23 Diciembre, Domingo

    Tiempo Temperatura Precipitaciones Viento Presión Humedad
    00:00 +4°C° 0 mm 2 mps 753 mmHg 88%
    01:00 +4°C° 0 mm 2 mps 753 mmHg 88%
    02:00 +4°C° 0.1 mm 2 mps 752 mmHg 88%
    03:00 +4°C° 0.1 mm 2 mps 752 mmHg 89%
    04:00 +4°C° 0.1 mm 2 mps 752 mmHg 89%
    05:00 +4°C° 0.2 mm 2 mps 752 mmHg 90%
    06:00 +4°C° 0.2 mm 2 mps 752 mmHg 90%
    07:00 +4°C° 0.2 mm 2 mps 752 mmHg 91%
    08:00 +6°C° 0.4 mm 1 mps 752 mmHg 91%
    09:00 +6°C° 0.4 mm 1 mps 753 mmHg 92%
    10:00 +7°C° 0.4 mm 1 mps 753 mmHg 93%
    11:00 +7°C° 0.1 mm 1 mps 753 mmHg 91%
    12:00 +8°C° 0.1 mm 1 mps 752 mmHg 89%
    13:00 +8°C° 0.1 mm 2 mps 752 mmHg 88%
    14:00 +8°C° 0.2 mm 1 mps 752 mmHg 90%
    15:00 +8°C° 0.2 mm 1 mps 752 mmHg 91%
    16:00 +7°C° 0.2 mm 1 mps 752 mmHg 93%
    17:00 +7°C° 0.8 mm 1 mps 753 mmHg 94%
    18:00 +7°C° 0.8 mm 1 mps 753 mmHg 95%
    19:00 +7°C° 0.8 mm 1 mps 753 mmHg 96%
    20:00 +7°C° 0.4 mm 1 mps 753 mmHg 96%
    21:00 +6°C° 0.4 mm 2 mps 754 mmHg 96%
    22:00 +6°C° 0.4 mm 2 mps 754 mmHg 96%
    23:00 +5°C° 0.1 mm 2 mps 754 mmHg 95%

    24 Diciembre, Lunes

    Tiempo Temperatura Precipitaciones Viento Presión Humedad
    00:00 +5°C° 0.1 mm 2 mps 753 mmHg 94%
    01:00 +5°C° 0.1 mm 2 mps 753 mmHg 93%
    02:00 +5°C° 0.1 mm 2 mps 753 mmHg 93%
    03:00 +6°C° 0.1 mm 1 mps 753 mmHg 92%
    04:00 +6°C° 0.1 mm 1 mps 753 mmHg 91%
    05:00 +6°C° 0.4 mm 1 mps 753 mmHg 91%
    06:00 +6°C° 0.4 mm 1 mps 754 mmHg 91%
    07:00 +5°C° 0.4 mm 2 mps 754 mmHg 91%
    08:00 +5°C° 0.1 mm 2 mps 754 mmHg 87%
    09:00 +5°C° 0.1 mm 3 mps 755 mmHg 83%
    10:00 +5°C° 0.1 mm 3 mps 755 mmHg 80%
    11:00 +6°C° 0 mm 4 mps 755 mmHg 73%
    12:00 +6°C° 0 mm 5 mps 755 mmHg 67%
    13:00 +7°C° 0 mm 5 mps 755 mmHg 61%
    14:00 +6°C° 0 mm 5 mps 755 mmHg 64%
    15:00 +5°C° 0 mm 4 mps 755 mmHg 66%
    16:00 +4°C° 0 mm 3 mps 756 mmHg 69%
    17:00 +4°C° 0 mm 3 mps 756 mmHg 72%
    18:00 +3°C° 0 mm 3 mps 756 mmHg 75%
    19:00 +2°C° 0 mm 3 mps 757 mmHg 78%
    20:00 +2°C° 0 mm 3 mps 757 mmHg 80%
    21:00 +2°C° 0 mm 3 mps 757 mmHg 81%
    22:00 +1°C° 0 mm 3 mps 757 mmHg 83%
    23:00 +1°C° 0 mm 3 mps 757 mmHg 85%
    Mostrar más